Year,Month,Day,Hour,Minute,Value (Times are PST for temperature in C)
2008,08,12,00,00,14.00
2008,08,12,00,01,14.00
2008,08,12,00,02,13.90
2008,08,12,00,03,13.90
2008,08,12,00,04,13.90
2008,08,12,00,05,13.90
2008,08,12,00,06,13.90
2008,08,12,00,07,13.90
2008,08,12,00,08,13.90
2008,08,12,00,09,13.90
2008,08,12,00,10,13.90
2008,08,12,00,11,13.90
2008,08,12,00,12,13.90
2008,08,12,00,13,13.90
2008,08,12,01,02,13.60
2008,08,12,01,03,13.60
2008,08,12,01,04,13.60
2008,08,12,01,05,13.60
2008,08,12,01,06,13.60
2008,08,12,01,07,13.60
2008,08,12,01,08,13.60
2008,08,12,01,09,13.60
2008,08,12,01,10,13.60
2008,08,12,01,11,13.60
2008,08,12,01,12,13.60
2008,08,12,01,13,13.50
2008,08,12,01,14,13.50
2008,08,12,01,15,13.50
2008,08,12,01,16,13.50
2008,08,12,01,17,13.50
2008,08,12,01,18,13.50
2008,08,12,01,19,13.50
2008,08,12,01,20,13.50
2008,08,12,01,21,13.50
2008,08,12,01,22,13.50
2008,08,12,01,23,13.50
2008,08,12,01,24,13.50
2008,08,12,01,25,13.50
2008,08,12,01,26,13.50
2008,08,12,01,27,13.50
2008,08,12,01,28,13.50
2008,08,12,01,29,13.50
2008,08,12,01,30,13.50
2008,08,12,01,31,13.50
2008,08,12,01,32,13.50
2008,08,12,01,33,13.50
2008,08,12,01,34,13.50
2008,08,12,01,35,13.40
2008,08,12,01,36,13.40
2008,08,12,01,37,13.40
2008,08,12,01,38,13.40
2008,08,12,01,39,13.40
2008,08,12,01,40,13.40
2008,08,12,01,41,13.40
2008,08,12,01,42,13.40
2008,08,12,01,43,13.40
2008,08,12,01,44,13.30
2008,08,12,01,45,13.30
2008,08,12,01,46,13.30
2008,08,12,01,47,13.30
2008,08,12,01,48,13.30
2008,08,12,01,49,13.30
2008,08,12,01,50,13.30
2008,08,12,01,51,13.30
2008,08,12,01,52,13.30
2008,08,12,01,53,13.30
2008,08,12,01,54,13.30
2008,08,12,01,55,13.30
2008,08,12,01,56,13.30
2008,08,12,01,57,13.30
2008,08,12,01,58,13.30
2008,08,12,01,59,13.30
2008,08,12,02,00,13.40
2008,08,12,02,01,13.40
2008,08,12,02,02,13.40
2008,08,12,02,03,13.40
2008,08,12,02,04,13.40
2008,08,12,02,05,13.40
2008,08,12,02,06,13.40
2008,08,12,02,07,13.40
2008,08,12,02,08,13.40
2008,08,12,02,09,13.40
2008,08,12,02,10,13.40
2008,08,12,02,11,13.40
2008,08,12,02,12,13.40
2008,08,12,02,13,13.40
2008,08,12,02,14,13.40
2008,08,12,02,15,13.40
2008,08,12,02,16,13.40
2008,08,12,02,17,13.30
2008,08,12,02,18,13.30
2008,08,12,02,19,13.30
2008,08,12,02,20,13.30
2008,08,12,02,21,13.30
2008,08,12,02,22,13.30
2008,08,12,02,23,13.30
2008,08,12,02,24,13.30
2008,08,12,02,25,13.30
2008,08,12,02,26,13.30
2008,08,12,02,27,13.30
2008,08,12,02,28,13.30
2008,08,12,02,29,13.30
2008,08,12,02,30,13.30
2008,08,12,02,31,13.30
2008,08,12,02,32,13.30
2008,08,12,02,33,13.30
2008,08,12,02,34,13.30
2008,08,12,02,35,13.30
2008,08,12,02,36,13.30
2008,08,12,02,37,13.20
2008,08,12,02,38,13.20
2008,08,12,02,39,13.20
2008,08,12,02,40,13.20
2008,08,12,02,41,13.20
2008,08,12,02,42,13.20
2008,08,12,02,43,13.20
2008,08,12,02,44,13.20
2008,08,12,02,45,13.10
2008,08,12,02,46,13.10
2008,08,12,02,47,13.10
2008,08,12,02,48,13.10
2008,08,12,02,49,13.10
2008,08,12,02,50,13.10
2008,08,12,02,51,13.10
2008,08,12,02,52,13.10
2008,08,12,02,53,13.10
2008,08,12,02,54,13.10
2008,08,12,02,55,13.00
2008,08,12,02,56,13.00
2008,08,12,02,57,13.00
2008,08,12,02,58,13.00
2008,08,12,02,59,13.00
2008,08,12,03,00,13.00
2008,08,12,03,01,13.00
2008,08,12,03,02,13.00
2008,08,12,03,03,12.90
2008,08,12,03,04,12.90
2008,08,12,03,05,12.90
2008,08,12,03,06,12.90
2008,08,12,03,07,12.90
2008,08,12,03,08,12.90
2008,08,12,03,09,12.90
2008,08,12,03,10,12.80
2008,08,12,03,11,12.80
2008,08,12,03,12,12.80
2008,08,12,03,13,12.80
2008,08,12,03,14,12.80
2008,08,12,03,15,12.80
2008,08,12,03,16,12.80
2008,08,12,03,17,12.80
2008,08,12,03,18,12.80
2008,08,12,03,19,12.80
2008,08,12,03,20,12.70
2008,08,12,03,21,12.70
2008,08,12,03,22,12.70
2008,08,12,03,23,12.70
2008,08,12,03,24,12.70
2008,08,12,03,25,12.70
2008,08,12,03,26,12.70
2008,08,12,03,27,12.60
2008,08,12,03,28,12.60
2008,08,12,03,29,12.60
2008,08,12,03,30,12.60
2008,08,12,03,31,12.60
2008,08,12,03,32,12.70
2008,08,12,03,33,12.70
2008,08,12,03,34,12.70
2008,08,12,03,35,12.70
2008,08,12,03,36,12.70
2008,08,12,03,37,12.80
2008,08,12,03,38,12.80
2008,08,12,03,39,12.80
2008,08,12,03,40,12.80
2008,08,12,03,41,12.80
2008,08,12,03,42,12.80
2008,08,12,03,43,12.80
2008,08,12,03,44,12.80
2008,08,12,03,45,12.80
2008,08,12,03,46,12.80
2008,08,12,03,47,12.80
2008,08,12,03,48,12.80
2008,08,12,03,49,12.80
2008,08,12,03,50,12.80
2008,08,12,03,51,12.80
2008,08,12,03,52,12.80
2008,08,12,03,53,12.80
2008,08,12,03,54,12.80
2008,08,12,03,55,12.80
2008,08,12,03,56,12.80
2008,08,12,03,57,12.80
2008,08,12,03,58,12.80
2008,08,12,03,59,12.80
2008,08,12,04,00,12.80
2008,08,12,04,01,12.80
2008,08,12,04,02,12.80
2008,08,12,04,03,12.80
2008,08,12,04,04,12.80
2008,08,12,04,05,12.80
2008,08,12,04,06,12.80
2008,08,12,04,07,12.80
2008,08,12,04,08,12.80
2008,08,12,04,09,12.80
2008,08,12,04,10,12.80
2008,08,12,04,11,12.80
2008,08,12,04,12,12.80
2008,08,12,04,13,12.80
2008,08,12,04,14,12.80
2008,08,12,04,15,12.80
2008,08,12,04,16,12.80
2008,08,12,04,17,12.70
2008,08,12,04,18,12.70
2008,08,12,04,19,12.70
2008,08,12,04,20,12.70
2008,08,12,04,21,12.70
2008,08,12,04,22,12.60
2008,08,12,04,23,12.60
2008,08,12,04,24,12.60
2008,08,12,04,25,12.60
2008,08,12,04,26,12.60
2008,08,12,04,27,12.60
2008,08,12,04,28,12.60
2008,08,12,04,29,12.60
2008,08,12,04,30,12.60
2008,08,12,04,31,12.50
2008,08,12,04,32,12.50
2008,08,12,04,33,12.50
2008,08,12,04,34,12.50
2008,08,12,04,35,12.50
2008,08,12,04,36,12.50
2008,08,12,04,37,12.50
2008,08,12,04,38,12.40
2008,08,12,04,39,12.40
2008,08,12,04,40,12.40
2008,08,12,04,41,12.40
2008,08,12,04,42,12.40
2008,08,12,04,43,12.30
2008,08,12,04,44,12.30
2008,08,12,04,45,12.30
2008,08,12,04,46,12.30
2008,08,12,04,47,12.30
2008,08,12,04,48,12.30
2008,08,12,04,49,12.30
2008,08,12,04,50,12.30
2008,08,12,04,51,12.30
2008,08,12,04,52,12.30
2008,08,12,04,53,12.30
2008,08,12,04,54,12.30
2008,08,12,04,55,12.30
2008,08,12,04,56,12.30
2008,08,12,04,57,12.30
2008,08,12,04,58,12.30
2008,08,12,04,59,12.30
2008,08,12,05,00,12.30
2008,08,12,05,01,12.30
2008,08,12,05,02,12.30
2008,08,12,05,03,12.30
2008,08,12,05,04,12.30
2008,08,12,05,05,12.30
2008,08,12,05,06,12.30
2008,08,12,05,07,12.30
2008,08,12,05,08,12.30
2008,08,12,05,09,12.30
2008,08,12,05,10,12.30
2008,08,12,05,11,12.30
2008,08,12,05,12,12.30
2008,08,12,05,13,12.30
2008,08,12,05,14,12.30
2008,08,12,05,15,12.30
2008,08,12,05,16,12.20
2008,08,12,05,17,12.20
2008,08,12,05,18,12.20
2008,08,12,05,19,12.20
2008,08,12,05,20,12.20
2008,08,12,05,21,12.20
2008,08,12,05,22,12.20
2008,08,12,05,23,12.20
2008,08,12,05,24,12.20
2008,08,12,05,25,12.20
2008,08,12,05,26,12.10
2008,08,12,05,27,12.10
2008,08,12,05,28,12.10
2008,08,12,05,29,12.10
2008,08,12,05,30,12.10
2008,08,12,05,31,12.10
2008,08,12,05,32,12.10
2008,08,12,05,33,12.10
2008,08,12,05,34,12.10
2008,08,12,05,35,12.10
2008,08,12,05,36,12.10
2008,08,12,05,37,12.10
2008,08,12,05,38,12.10
2008,08,12,05,39,12.10
2008,08,12,05,40,12.10
2008,08,12,05,41,12.10
2008,08,12,05,42,12.10
2008,08,12,05,43,12.10
2008,08,12,05,44,12.00
2008,08,12,05,45,12.00
2008,08,12,05,46,12.00
2008,08,12,05,47,12.00
2008,08,12,05,48,12.00
2008,08,12,05,49,12.00
2008,08,12,05,50,12.00
2008,08,12,05,51,11.90
2008,08,12,05,52,11.90
2008,08,12,05,53,11.90
2008,08,12,05,54,11.90
2008,08,12,05,55,11.80
2008,08,12,05,56,11.80
2008,08,12,05,57,11.80
2008,08,12,05,58,11.80
2008,08,12,05,59,11.80
2008,08,12,06,00,11.80
2008,08,12,06,01,11.80
2008,08,12,06,02,11.80
2008,08,12,06,03,11.80
2008,08,12,06,04,11.80
2008,08,12,06,05,11.80
2008,08,12,06,06,11.80
2008,08,12,06,07,11.80
2008,08,12,06,08,11.80
2008,08,12,06,09,11.80
2008,08,12,06,10,11.80
2008,08,12,06,11,11.80
2008,08,12,06,12,11.80
2008,08,12,06,13,11.80
2008,08,12,06,14,11.80
2008,08,12,06,15,11.90
2008,08,12,06,16,11.90
2008,08,12,06,17,11.90
2008,08,12,06,18,11.90
2008,08,12,06,19,12.00
2008,08,12,06,20,12.00
2008,08,12,06,21,12.00
2008,08,12,06,22,12.10
2008,08,12,06,23,12.10
2008,08,12,06,24,12.10
2008,08,12,06,25,12.20
2008,08,12,06,26,12.20
2008,08,12,06,27,12.20
2008,08,12,06,28,12.20
2008,08,12,06,29,12.20
2008,08,12,06,30,12.20
2008,08,12,06,31,12.30
2008,08,12,06,32,12.30
2008,08,12,06,33,12.30
2008,08,12,06,34,12.30
2008,08,12,06,35,12.30
2008,08,12,06,36,12.40
2008,08,12,06,37,12.40
2008,08,12,06,38,12.40
2008,08,12,06,39,12.50
2008,08,12,06,40,12.50
2008,08,12,06,41,12.50
2008,08,12,06,42,12.60
2008,08,12,06,43,12.60
2008,08,12,06,44,12.60
2008,08,12,06,45,12.60
2008,08,12,06,46,12.70
2008,08,12,06,47,12.70
2008,08,12,06,48,12.70
2008,08,12,06,49,12.70
2008,08,12,06,50,12.70
2008,08,12,06,51,12.70
2008,08,12,06,52,12.80
2008,08,12,06,53,12.80
2008,08,12,06,54,12.80
2008,08,12,06,55,12.80
2008,08,12,06,56,12.80
2008,08,12,06,57,12.80
2008,08,12,06,58,12.80
2008,08,12,06,59,12.80
2008,08,12,07,00,12.80
2008,08,12,07,01,12.90
2008,08,12,07,02,12.90
2008,08,12,07,03,12.90
2008,08,12,07,04,12.90
2008,08,12,07,05,13.00
2008,08,12,07,06,13.00
2008,08,12,07,07,13.00
2008,08,12,07,08,13.00
2008,08,12,07,09,13.10
2008,08,12,07,10,13.10
2008,08,12,07,11,13.10
2008,08,12,07,12,13.20
2008,08,12,07,13,13.20
2008,08,12,07,14,13.20
2008,08,12,07,15,13.20
2008,08,12,07,16,13.30
2008,08,12,07,17,13.30
2008,08,12,07,18,13.30
2008,08,12,07,19,13.30
2008,08,12,07,20,13.30
2008,08,12,07,21,13.40
2008,08,12,07,22,13.40
2008,08,12,07,23,13.50
2008,08,12,07,24,13.50
2008,08,12,07,25,13.60
2008,08,12,07,26,13.70
2008,08,12,07,27,13.70
2008,08,12,07,28,13.70
2008,08,12,07,29,13.80
2008,08,12,07,30,13.90
2008,08,12,07,31,13.90
2008,08,12,07,32,14.00
2008,08,12,07,33,14.00
2008,08,12,07,34,14.00
2008,08,12,07,35,14.10
2008,08,12,07,36,14.10
2008,08,12,07,37,14.20
2008,08,12,07,38,14.20
2008,08,12,07,39,14.20
2008,08,12,07,40,14.20
2008,08,12,07,41,14.20
2008,08,12,07,42,14.30
2008,08,12,07,43,14.30
2008,08,12,07,44,14.40
2008,08,12,07,45,14.40
2008,08,12,07,46,14.40
2008,08,12,07,47,14.50
2008,08,12,07,48,14.50
2008,08,12,07,49,14.50
2008,08,12,07,50,14.50
2008,08,12,07,51,14.60
2008,08,12,07,52,14.60
2008,08,12,07,53,14.60
2008,08,12,07,54,14.70
2008,08,12,07,55,14.70
2008,08,12,07,56,14.70
2008,08,12,07,57,14.80
2008,08,12,07,58,14.80
2008,08,12,07,59,14.80
2008,08,12,08,00,14.80
2008,08,12,08,01,14.80
2008,08,12,08,02,14.80
2008,08,12,08,03,14.90
2008,08,12,08,04,14.90
2008,08,12,08,05,14.90
2008,08,12,08,06,15.00
2008,08,12,08,07,15.00
2008,08,12,08,08,15.00
2008,08,12,08,09,15.00
2008,08,12,08,10,15.10
2008,08,12,08,11,15.10
2008,08,12,08,12,15.10
2008,08,12,08,13,15.10
2008,08,12,08,14,15.20
2008,08,12,08,15,15.20
2008,08,12,08,16,15.20
2008,08,12,08,17,15.30
2008,08,12,08,18,15.30
2008,08,12,08,19,15.30
2008,08,12,08,20,15.30
2008,08,12,08,21,15.30
2008,08,12,08,22,15.40
2008,08,12,08,23,15.40
2008,08,12,08,24,15.40
2008,08,12,08,25,15.50
2008,08,12,08,26,15.50
2008,08,12,08,27,15.60
2008,08,12,08,28,15.60
2008,08,12,08,29,15.60
2008,08,12,08,30,15.70
2008,08,12,08,31,15.70
2008,08,12,08,32,15.70
2008,08,12,08,33,15.80
2008,08,12,08,34,15.80
2008,08,12,08,35,15.80
2008,08,12,08,36,15.90
2008,08,12,08,37,15.90
2008,08,12,08,38,16.10
2008,08,12,08,39,16.10
2008,08,12,08,40,16.10
2008,08,12,08,41,16.20
2008,08,12,08,42,16.30
2008,08,12,08,43,16.40
2008,08,12,08,44,16.40
2008,08,12,08,45,16.50
2008,08,12,08,46,16.60
2008,08,12,08,47,16.70
2008,08,12,08,48,16.70
2008,08,12,08,49,16.70
2008,08,12,08,50,16.80
2008,08,12,08,51,16.80
2008,08,12,08,52,16.90
2008,08,12,08,53,17.00
2008,08,12,08,54,17.00
2008,08,12,08,55,17.10
2008,08,12,08,56,17.10
2008,08,12,08,57,17.20
2008,08,12,08,58,17.20
2008,08,12,08,59,17.30
2008,08,12,09,00,17.30
2008,08,12,09,01,17.30
2008,08,12,09,02,17.40
2008,08,12,09,03,17.40
2008,08,12,09,04,17.50
2008,08,12,09,05,17.50
2008,08,12,09,06,17.60
2008,08,12,09,07,17.70
2008,08,12,09,08,17.70
2008,08,12,09,09,17.80
2008,08,12,09,10,17.90
2008,08,12,09,11,17.90
2008,08,12,09,12,17.90
2008,08,12,09,13,18.00
2008,08,12,09,14,18.10
2008,08,12,09,15,18.10
2008,08,12,09,16,18.20
2008,08,12,09,17,18.20
2008,08,12,09,18,18.20
2008,08,12,09,19,18.20
2008,08,12,09,20,18.20
2008,08,12,09,21,18.30
2008,08,12,09,22,18.30
2008,08,12,09,23,18.30
2008,08,12,09,24,18.30
2008,08,12,09,25,18.30
2008,08,12,09,26,18.30
2008,08,12,09,27,18.30
2008,08,12,09,28,18.30
2008,08,12,09,29,18.40
2008,08,12,09,30,18.40
2008,08,12,09,31,18.40
2008,08,12,09,32,18.40
2008,08,12,09,33,18.40
2008,08,12,09,34,18.40
2008,08,12,09,35,18.50
2008,08,12,09,36,18.50
2008,08,12,09,37,18.50
2008,08,12,09,38,18.60
2008,08,12,09,39,18.60
2008,08,12,09,40,18.60
2008,08,12,09,41,18.70
2008,08,12,09,42,18.70
2008,08,12,09,43,18.70
2008,08,12,09,44,18.70
2008,08,12,09,45,18.80
2008,08,12,09,46,18.80
2008,08,12,09,47,18.80
2008,08,12,09,48,18.80
2008,08,12,09,49,18.80
2008,08,12,09,50,18.90
2008,08,12,09,51,18.90
2008,08,12,09,52,18.90
2008,08,12,09,53,18.90
2008,08,12,09,54,19.10
2008,08,12,09,55,19.10
2008,08,12,09,56,19.10
2008,08,12,09,57,19.20
2008,08,12,09,58,19.20
2008,08,12,09,59,19.30
2008,08,12,10,00,19.40
2008,08,12,10,01,19.40
2008,08,12,10,02,19.40
2008,08,12,10,03,19.50
2008,08,12,10,04,19.50
2008,08,12,10,05,19.50
2008,08,12,10,06,19.60
2008,08,12,10,07,19.60
2008,08,12,10,08,19.60
2008,08,12,10,09,19.60
2008,08,12,10,10,19.50
2008,08,12,10,11,19.50
2008,08,12,10,12,19.50
2008,08,12,10,13,19.50
2008,08,12,10,14,19.50
2008,08,12,10,15,19.50
2008,08,12,10,16,19.40
2008,08,12,10,17,19.40
2008,08,12,10,18,19.40
2008,08,12,10,19,19.40
2008,08,12,10,20,19.40
2008,08,12,10,21,19.40
2008,08,12,10,22,19.30
2008,08,12,10,23,19.30
2008,08,12,10,24,19.30
2008,08,12,10,25,19.20
2008,08,12,10,26,19.20
2008,08,12,10,27,19.20
2008,08,12,10,28,19.10
2008,08,12,10,29,19.10
2008,08,12,10,30,19.10
2008,08,12,10,31,19.10
2008,08,12,10,32,19.10
2008,08,12,10,33,19.10
2008,08,12,10,34,19.00
2008,08,12,10,35,18.90
2008,08,12,10,36,18.90
2008,08,12,10,37,18.90
2008,08,12,10,38,18.90
2008,08,12,10,39,18.90
2008,08,12,10,40,18.90
2008,08,12,10,41,18.90
2008,08,12,10,42,18.90
2008,08,12,10,43,18.80
2008,08,12,10,44,18.80
2008,08,12,10,45,18.70
2008,08,12,10,46,18.70
2008,08,12,10,47,18.70
2008,08,12,10,48,18.70
2008,08,12,10,49,18.60
2008,08,12,10,50,18.60
2008,08,12,10,51,18.60
2008,08,12,10,52,18.60
2008,08,12,10,53,18.50
2008,08,12,10,54,18.50
2008,08,12,10,55,18.50
2008,08,12,10,56,18.50
2008,08,12,10,57,18.50
2008,08,12,10,58,18.50
2008,08,12,10,59,18.50
2008,08,12,11,00,18.50
2008,08,12,11,01,18.40
2008,08,12,11,02,18.40
2008,08,12,11,03,18.40
2008,08,12,11,04,18.40
2008,08,12,11,05,18.40
2008,08,12,11,06,18.40
2008,08,12,11,07,18.40
2008,08,12,11,08,18.40
2008,08,12,11,09,18.40
2008,08,12,11,10,18.40
2008,08,12,11,11,18.30
2008,08,12,11,12,18.30
2008,08,12,11,13,18.30
2008,08,12,11,14,18.30
2008,08,12,11,15,18.30
2008,08,12,11,16,18.30
2008,08,12,11,17,18.30
2008,08,12,11,18,18.30
2008,08,12,11,19,18.30
2008,08,12,11,20,18.30
2008,08,12,11,21,18.30
2008,08,12,11,22,18.30
2008,08,12,11,23,18.30
2008,08,12,11,24,18.30
2008,08,12,11,25,18.30
2008,08,12,11,26,18.30
2008,08,12,11,27,18.30
2008,08,12,11,28,18.30
2008,08,12,11,29,18.30
2008,08,12,11,30,18.20
2008,08,12,11,31,18.20
2008,08,12,11,32,18.20
2008,08,12,11,33,18.30
2008,08,12,11,34,18.30
2008,08,12,11,35,18.30
2008,08,12,11,36,18.30
2008,08,12,11,37,18.30
2008,08,12,11,38,18.30
2008,08,12,11,39,18.30
2008,08,12,11,40,18.30
2008,08,12,11,41,18.30
2008,08,12,11,42,18.40
2008,08,12,11,43,18.40
2008,08,12,11,44,18.40
2008,08,12,11,45,18.40
2008,08,12,11,46,18.40
2008,08,12,11,47,18.50
2008,08,12,11,48,18.50
2008,08,12,11,49,18.50
2008,08,12,11,50,18.50
2008,08,12,11,51,18.60
2008,08,12,11,52,18.60
2008,08,12,11,53,18.60
2008,08,12,11,54,18.60
2008,08,12,11,55,18.50
2008,08,12,11,56,18.50
2008,08,12,11,57,18.50
2008,08,12,11,58,18.50
2008,08,12,11,59,18.50
2008,08,12,12,00,18.50
2008,08,12,12,01,18.50
2008,08,12,12,02,18.50
2008,08,12,12,03,18.50
2008,08,12,12,04,18.50
2008,08,12,12,05,18.50
2008,08,12,12,06,18.50
2008,08,12,12,07,18.50
2008,08,12,12,08,18.60
2008,08,12,12,09,18.60
2008,08,12,12,10,18.50
2008,08,12,12,11,18.50
2008,08,12,12,12,18.50
2008,08,12,12,13,18.50
2008,08,12,12,14,18.50
2008,08,12,12,15,18.50
2008,08,12,12,16,18.60
2008,08,12,12,17,18.60
2008,08,12,12,18,18.70
2008,08,12,12,19,18.70
2008,08,12,12,20,18.70
2008,08,12,12,21,18.70
2008,08,12,12,22,18.70
2008,08,12,12,23,18.70
2008,08,12,12,24,18.80
2008,08,12,12,25,18.80
2008,08,12,12,26,18.80
2008,08,12,12,27,18.90
2008,08,12,12,28,18.80
2008,08,12,12,29,18.80
2008,08,12,12,30,18.90
2008,08,12,12,31,18.90
2008,08,12,12,32,18.90
2008,08,12,12,33,18.80
2008,08,12,12,34,18.80
2008,08,12,12,35,18.80
2008,08,12,12,36,18.80
2008,08,12,12,37,18.90
2008,08,12,12,38,18.90
2008,08,12,12,39,18.90
2008,08,12,12,40,18.90
2008,08,12,12,41,18.90
2008,08,12,12,42,18.90
2008,08,12,12,43,18.90
2008,08,12,12,44,19.00
2008,08,12,12,45,19.10
2008,08,12,12,46,19.10
2008,08,12,12,47,19.10
2008,08,12,12,48,19.10
2008,08,12,12,49,19.10
2008,08,12,12,50,19.20
2008,08,12,12,51,19.20
2008,08,12,12,52,19.10
2008,08,12,12,53,19.20
2008,08,12,12,54,19.20
2008,08,12,12,55,19.20
2008,08,12,12,56,19.20
2008,08,12,12,57,19.20
2008,08,12,12,58,19.20
2008,08,12,12,59,19.20
2008,08,12,13,00,19.20
2008,08,12,13,01,19.30
2008,08,12,13,02,19.30
2008,08,12,13,03,19.40
2008,08,12,13,04,19.40
2008,08,12,13,05,19.40
2008,08,12,13,06,19.40
2008,08,12,13,07,19.50
2008,08,12,13,08,19.50
2008,08,12,13,09,19.50
2008,08,12,13,10,19.50
2008,08,12,13,11,19.50
2008,08,12,13,12,19.50
2008,08,12,13,13,19.50
2008,08,12,13,14,19.60
2008,08,12,13,15,19.60
2008,08,12,13,16,19.60
2008,08,12,13,17,19.70
2008,08,12,13,18,19.70
2008,08,12,13,19,19.80
2008,08,12,13,20,19.80
2008,08,12,13,21,19.80
2008,08,12,13,22,19.90
2008,08,12,13,23,19.90
2008,08,12,13,24,19.90
2008,08,12,13,25,19.90
2008,08,12,13,26,19.90
2008,08,12,13,27,19.90
2008,08,12,13,28,19.90
2008,08,12,13,29,19.90
2008,08,12,13,30,19.90
2008,08,12,13,31,20.00
2008,08,12,13,32,20.10
2008,08,12,13,33,20.10
2008,08,12,13,34,20.10
2008,08,12,13,35,20.20
2008,08,12,13,36,20.20
2008,08,12,13,37,20.20
2008,08,12,13,38,20.10
2008,08,12,13,39,20.10
2008,08,12,13,40,20.10
2008,08,12,13,41,20.00
2008,08,12,13,42,19.90
2008,08,12,13,43,19.90
2008,08,12,13,44,19.90
2008,08,12,13,45,19.90
2008,08,12,13,46,19.90
2008,08,12,13,47,19.90
2008,08,12,13,48,19.90
2008,08,12,13,49,19.90
2008,08,12,13,50,19.90
2008,08,12,13,51,19.90
2008,08,12,13,52,19.90
2008,08,12,13,53,19.90
2008,08,12,13,54,19.90
2008,08,12,13,55,19.90
2008,08,12,13,56,19.90
2008,08,12,13,57,19.90
2008,08,12,13,58,19.90
2008,08,12,13,59,19.90
2008,08,12,14,00,19.90
2008,08,12,14,01,20.00
2008,08,12,14,02,20.10
2008,08,12,14,03,20.10
2008,08,12,14,04,20.10
2008,08,12,14,05,20.10
2008,08,12,14,06,20.00
2008,08,12,14,07,20.00
2008,08,12,14,08,19.90
2008,08,12,14,09,19.90
2008,08,12,14,10,19.90
2008,08,12,14,11,19.90
2008,08,12,14,12,19.80
2008,08,12,14,13,19.70
2008,08,12,14,14,19.60
2008,08,12,14,15,19.60
2008,08,12,14,16,19.50
2008,08,12,14,17,19.50
2008,08,12,14,18,19.50
2008,08,12,14,19,19.50
2008,08,12,14,20,19.50
2008,08,12,14,21,19.50
2008,08,12,14,22,19.60
2008,08,12,14,23,19.60
2008,08,12,14,24,19.60
2008,08,12,14,25,19.60
2008,08,12,14,26,19.60
2008,08,12,14,27,19.70
2008,08,12,14,28,19.70
2008,08,12,14,29,19.70
2008,08,12,14,30,19.70
2008,08,12,14,31,19.70
2008,08,12,14,32,19.60
2008,08,12,14,33,19.60
2008,08,12,14,34,19.60
2008,08,12,14,35,19.60
2008,08,12,14,36,19.60
2008,08,12,14,37,19.60
2008,08,12,14,38,19.60
2008,08,12,14,39,19.60
2008,08,12,14,40,19.60
2008,08,12,14,41,19.70
2008,08,12,14,42,19.60
2008,08,12,14,43,19.60
2008,08,12,14,44,19.50
2008,08,12,14,45,19.50
2008,08,12,14,46,19.50
2008,08,12,14,47,19.40
2008,08,12,14,48,19.40
2008,08,12,14,49,19.30
2008,08,12,14,50,19.20
2008,08,12,14,51,19.10
2008,08,12,14,52,19.10
2008,08,12,14,53,19.00
2008,08,12,14,54,18.90
2008,08,12,14,55,18.90
2008,08,12,14,56,18.80
2008,08,12,14,57,18.80
2008,08,12,14,58,18.80
2008,08,12,14,59,18.80
2008,08,12,15,00,18.80
2008,08,12,15,01,18.80
2008,08,12,15,02,18.80
2008,08,12,15,03,18.80
2008,08,12,15,04,18.80
2008,08,12,15,05,18.80
2008,08,12,15,06,18.90
2008,08,12,15,07,18.90
2008,08,12,15,08,18.90
2008,08,12,15,09,18.90
2008,08,12,15,10,18.90
2008,08,12,15,11,18.90
2008,08,12,15,12,18.90
2008,08,12,15,13,19.00
2008,08,12,15,14,19.10
2008,08,12,15,15,19.10
2008,08,12,15,16,19.10
2008,08,12,15,17,19.10
2008,08,12,15,18,19.10
2008,08,12,15,19,19.10
2008,08,12,15,20,19.10
2008,08,12,15,21,19.10
2008,08,12,15,22,19.10
2008,08,12,15,23,19.10
2008,08,12,15,24,19.10
2008,08,12,15,25,19.10
2008,08,12,15,26,19.00
2008,08,12,15,27,18.90
2008,08,12,15,28,18.90
2008,08,12,15,29,18.90
2008,08,12,15,30,18.90
2008,08,12,15,31,18.90
2008,08,12,15,32,18.90
2008,08,12,15,33,18.90
2008,08,12,15,34,18.90
2008,08,12,15,35,18.90
2008,08,12,15,36,18.90
2008,08,12,15,37,18.90
2008,08,12,15,38,18.90
2008,08,12,15,39,18.90
2008,08,12,15,40,18.90
2008,08,12,15,41,18.90
2008,08,12,15,42,18.90
2008,08,12,15,43,18.90
2008,08,12,15,44,18.90
2008,08,12,15,45,18.90
2008,08,12,15,46,18.90
2008,08,12,15,47,18.90
2008,08,12,15,48,18.90
2008,08,12,15,49,18.90
2008,08,12,15,50,18.90
2008,08,12,15,51,18.90
2008,08,12,15,52,18.90
2008,08,12,15,53,18.90
2008,08,12,15,54,18.90
2008,08,12,15,55,18.90
2008,08,12,15,56,18.90
2008,08,12,15,57,18.90
2008,08,12,15,58,18.80
2008,08,12,15,59,18.80
2008,08,12,16,00,18.80
2008,08,12,16,01,18.80
2008,08,12,16,02,18.90
2008,08,12,16,03,18.90
2008,08,12,16,04,18.90
2008,08,12,16,05,18.90
2008,08,12,16,06,19.10
2008,08,12,16,07,19.10
2008,08,12,16,08,19.10
2008,08,12,16,09,19.10
2008,08,12,16,10,19.10
2008,08,12,16,11,19.10
2008,08,12,16,12,19.10
2008,08,12,16,13,19.10
2008,08,12,16,14,19.10
2008,08,12,16,15,19.10
2008,08,12,16,16,19.10
2008,08,12,16,17,19.10
2008,08,12,16,18,19.10
2008,08,12,16,19,19.10
2008,08,12,16,20,19.10
2008,08,12,16,21,19.10
2008,08,12,16,22,19.10
2008,08,12,16,23,19.10
2008,08,12,16,24,19.10
2008,08,12,16,25,19.10
2008,08,12,16,26,19.10
2008,08,12,16,27,19.10
2008,08,12,16,28,19.10
2008,08,12,16,29,19.10
2008,08,12,16,30,19.10
2008,08,12,16,31,19.10
2008,08,12,16,32,19.10
2008,08,12,16,33,19.10
2008,08,12,16,34,19.10
2008,08,12,16,35,19.10
2008,08,12,16,36,19.10
2008,08,12,16,37,19.00
2008,08,12,16,38,18.90
2008,08,12,16,39,18.90
2008,08,12,16,40,18.80
2008,08,12,16,41,18.80
2008,08,12,16,42,18.80
2008,08,12,16,43,18.80
2008,08,12,16,44,18.80
2008,08,12,16,45,18.80
2008,08,12,16,46,18.90
2008,08,12,16,47,18.90
2008,08,12,16,48,18.90
2008,08,12,16,49,18.90
2008,08,12,16,50,18.90
2008,08,12,16,51,19.00
2008,08,12,16,52,19.10
2008,08,12,16,53,19.10
2008,08,12,16,54,19.20
2008,08,12,16,55,19.30
2008,08,12,16,56,19.30
2008,08,12,16,57,19.40
2008,08,12,16,58,19.40
2008,08,12,16,59,19.50
2008,08,12,17,00,19.50
2008,08,12,17,01,19.50
2008,08,12,17,02,19.50
2008,08,12,17,03,19.60
2008,08,12,17,04,19.60
2008,08,12,17,05,19.60
2008,08,12,17,06,19.70
2008,08,12,17,07,19.70
2008,08,12,17,08,19.70
2008,08,12,17,09,19.70
2008,08,12,17,10,19.70
2008,08,12,17,11,19.60
2008,08,12,17,12,19.50
2008,08,12,17,13,19.50
2008,08,12,17,14,19.50
2008,08,12,17,15,19.40
2008,08,12,17,16,19.40
2008,08,12,17,17,19.40
2008,08,12,17,18,19.30
2008,08,12,17,19,19.30
2008,08,12,17,20,19.40
2008,08,12,17,21,19.40
2008,08,12,17,22,19.40
2008,08,12,17,23,19.50
2008,08,12,17,24,19.50
2008,08,12,17,25,19.60
2008,08,12,17,26,19.60
2008,08,12,17,27,19.70
2008,08,12,17,28,19.70
2008,08,12,17,29,19.80
2008,08,12,17,30,19.80
2008,08,12,17,31,19.80
2008,08,12,17,32,19.90
2008,08,12,17,33,19.90
2008,08,12,17,34,19.90
2008,08,12,17,35,19.90
2008,08,12,17,36,19.90
2008,08,12,17,37,19.90
2008,08,12,17,38,19.90
2008,08,12,17,39,19.90
2008,08,12,17,40,19.90
2008,08,12,17,41,19.90
2008,08,12,17,42,19.80
2008,08,12,17,43,19.80
2008,08,12,17,44,19.70
2008,08,12,17,45,19.70
2008,08,12,17,46,19.70
2008,08,12,17,47,19.70
2008,08,12,17,48,19.60
2008,08,12,17,49,19.60
2008,08,12,17,50,19.60
2008,08,12,17,51,19.60
2008,08,12,17,52,19.60
2008,08,12,17,53,19.60
2008,08,12,17,54,19.60
2008,08,12,17,55,19.60
2008,08,12,17,56,19.60
2008,08,12,17,57,19.60
2008,08,12,17,58,19.60
2008,08,12,17,59,19.60
2008,08,12,18,00,19.60
2008,08,12,18,01,19.60
2008,08,12,18,02,19.60
2008,08,12,18,03,19.60
2008,08,12,18,04,19.60
2008,08,12,18,05,19.50
2008,08,12,18,06,19.50
2008,08,12,18,07,19.50